TimeCST,TemperatureF,Dew PointF,Humidity,Sea Level PressureIn,VisibilityMPH,Wind Direction,Wind SpeedMPH,Gust SpeedMPH,PrecipitationIn,Events,Conditions,WindDirDegrees,DateUTC
12:15 AM,41.0,41.0,100,30.03,2.0,ENE,9.2,-,N/A,,Light Drizzle,60,2012-11-05 06:15:00
12:35 AM,41.0,41.0,100,30.04,2.0,ENE,9.2,-,N/A,,Light Drizzle,70,2012-11-05 06:35:00
12:55 AM,41.0,41.0,100,30.04,2.0,ENE,9.2,-,N/A,,Light Drizzle,70,2012-11-05 06:55:00
1:15 AM,41.0,41.0,100,30.04,2.0,ENE,10.4,-,N/A,,Overcast,70,2012-11-05 07:15:00
1:35 AM,41.0,41.0,100,30.04,2.5,East,10.4,-,N/A,,Overcast,80,2012-11-05 07:35:00
1:55 AM,41.0,41.0,100,30.04,2.5,East,9.2,-,0.01,,Overcast,80,2012-11-05 07:55:00
2:15 AM,41.0,41.0,100,30.04,3.0,East,9.2,-,N/A,,Light Drizzle,80,2012-11-05 08:15:00
2:35 AM,41.0,41.0,100,30.05,3.0,ENE,9.2,-,N/A,,Light Drizzle,70,2012-11-05 08:35:00
2:55 AM,41.0,41.0,100,30.05,3.0,ENE,11.5,-,N/A,,Light Drizzle,70,2012-11-05 08:55:00
3:15 AM,41.0,41.0,100,30.05,3.0,ENE,11.5,-,N/A,,Light Drizzle,70,2012-11-05 09:15:00
3:35 AM,41.0,41.0,100,30.06,4.0,ENE,6.9,-,N/A,,Light Drizzle,70,2012-11-05 09:35:00
3:55 AM,41.0,41.0,100,30.06,3.0,ENE,8.1,-,0.01,Rain,Light Rain,60,2012-11-05 09:55:00
4:15 AM,41.0,41.0,100,30.07,4.0,NE,6.9,-,N/A,,Light Drizzle,50,2012-11-05 10:15:00
4:35 AM,41.0,41.0,100,30.07,4.0,NE,8.1,-,N/A,Rain,Light Rain,50,2012-11-05 10:35:00
4:55 AM,41.0,41.0,100,30.08,4.0,NE,8.1,-,0.01,Rain,Light Rain,50,2012-11-05 10:55:00
5:15 AM,41.0,39.2,93,30.09,3.0,NE,9.2,-,N/A,Rain,Light Rain,40,2012-11-05 11:15:00
5:35 AM,39.2,39.2,100,30.09,2.5,NE,10.4,-,N/A,Rain,Light Rain,50,2012-11-05 11:35:00
5:55 AM,39.2,39.2,100,30.09,2.5,NE,9.2,-,0.02,Rain,Light Rain,50,2012-11-05 11:55:00
6:15 AM,39.2,39.2,100,30.09,3.0,NE,10.4,-,N/A,Rain,Light Rain,50,2012-11-05 12:15:00
6:35 AM,39.2,39.2,100,30.10,3.0,NE,8.1,-,N/A,,Overcast,50,2012-11-05 12:35:00
6:55 AM,39.2,39.2,100,30.10,2.0,ENE,8.1,-,N/A,,Overcast,70,2012-11-05 12:55:00
7:15 AM,39.2,39.2,100,30.11,1.8,ENE,6.9,-,N/A,,Overcast,60,2012-11-05 13:15:00
7:35 AM,39.2,39.2,100,30.12,1.5,NE,6.9,-,N/A,,Overcast,40,2012-11-05 13:35:00
7:55 AM,39.2,39.2,100,30.12,0.8,ENE,6.9,-,N/A,,Overcast,60,2012-11-05 13:55:00
8:15 AM,39.2,39.2,100,30.13,0.8,ENE,5.8,-,N/A,,Overcast,70,2012-11-05 14:15:00
8:35 AM,39.2,39.2,100,30.13,0.8,ENE,5.8,-,N/A,,Overcast,70,2012-11-05 14:35:00
8:55 AM,39.2,39.2,100,30.13,0.8,ENE,5.8,-,N/A,,Overcast,60,2012-11-05 14:55:00
9:15 AM,39.2,39.2,100,30.14,0.8,ENE,6.9,-,N/A,,Overcast,70,2012-11-05 15:15:00
9:35 AM,39.2,39.2,100,30.14,1.2,East,8.1,-,N/A,,Overcast,90,2012-11-05 15:35:00
9:55 AM,39.2,39.2,100,30.14,1.2,ESE,6.9,-,N/A,,Overcast,110,2012-11-05 15:55:00
10:15 AM,39.2,39.2,100,30.14,2.5,ESE,6.9,-,N/A,,Overcast,110,2012-11-05 16:15:00
10:35 AM,39.2,39.2,100,30.15,3.0,East,6.9,-,N/A,,Overcast,100,2012-11-05 16:35:00
10:55 AM,39.2,39.2,100,30.15,-9999.0,SE,6.9,-,N/A,,Overcast,130,2012-11-05 16:55:00
11:15 AM,41.0,39.2,93,30.15,5.0,SE,4.6,-,N/A,,Overcast,140,2012-11-05 17:15:00
11:35 AM,41.0,39.2,93,30.14,5.0,SE,3.5,-,N/A,,Overcast,130,2012-11-05 17:35:00
11:55 AM,41.0,39.2,93,30.14,6.0,Calm,Calm,-,N/A,,Overcast,0,2012-11-05 17:55:00
12:15 PM,41.0,39.2,93,30.13,8.0,Calm,Calm,-,N/A,,Overcast,0,2012-11-05 18:15:00
12:35 PM,41.0,39.2,93,30.13,7.0,Calm,Calm,-,N/A,,Mostly Cloudy,0,2012-11-05 18:35:00
12:55 PM,41.0,39.2,93,30.13,7.0,Calm,Calm,-,N/A,,Overcast,0,2012-11-05 18:55:00
1:15 PM,41.0,39.2,93,30.12,7.0,Calm,Calm,-,N/A,,Overcast,0,2012-11-05 19:15:00
1:35 PM,41.0,39.2,93,30.12,7.0,Calm,Calm,-,N/A,,Overcast,0,2012-11-05 19:35:00
1:55 PM,41.0,39.2,93,30.11,7.0,West,3.5,-,N/A,,Overcast,280,2012-11-05 19:55:00
2:15 PM,41.0,39.2,93,30.11,8.0,West,4.6,-,N/A,,Overcast,270,2012-11-05 20:15:00
2:35 PM,41.0,39.2,93,30.10,6.0,Calm,Calm,-,N/A,,Overcast,0,2012-11-05 20:35:00
2:55 PM,41.0,39.2,93,30.10,7.0,Calm,Calm,-,N/A,,Overcast,0,2012-11-05 20:55:00
3:15 PM,41.0,39.2,93,30.10,5.0,Calm,Calm,-,N/A,,Overcast,0,2012-11-05 21:15:00
3:35 PM,41.0,39.2,93,30.10,5.0,WSW,3.5,-,N/A,,Overcast,250,2012-11-05 21:35:00
3:55 PM,41.0,39.2,93,30.11,3.0,WNW,6.9,-,N/A,,Overcast,290,2012-11-05 21:55:00
4:15 PM,41.0,39.2,93,30.11,1.8,WNW,6.9,-,N/A,,Overcast,290,2012-11-05 22:15:00
4:35 PM,39.2,39.2,100,30.10,1.0,WNW,4.6,-,N/A,,Overcast,300,2012-11-05 22:35:00
4:55 PM,39.2,39.2,100,30.09,0.8,WNW,4.6,-,N/A,,Overcast,290,2012-11-05 22:55:00
5:15 PM,39.2,39.2,100,30.09,0.2,West,3.5,-,N/A,Fog,Fog,280,2012-11-05 23:15:00
5:35 PM,39.2,39.2,100,30.08,0.5,West,3.5,-,N/A,Fog,Fog,260,2012-11-05 23:35:00
5:55 PM,39.2,39.2,100,30.08,0.2,West,5.8,-,N/A,Fog,Fog,270,2012-11-05 23:55:00
6:15 PM,39.2,39.2,100,30.08,0.2,West,3.5,-,N/A,Fog,Fog,260,2012-11-06 00:15:00
6:35 PM,39.2,39.2,100,30.09,0.2,West,5.8,-,N/A,Fog,Fog,270,2012-11-06 00:35:00
6:55 PM,39.2,39.2,100,30.09,0.2,West,8.1,-,N/A,Fog,Fog,280,2012-11-06 00:55:00
7:15 PM,39.2,39.2,100,30.08,0.2,West,6.9,-,N/A,Fog,Fog,270,2012-11-06 01:15:00
7:35 PM,39.2,39.2,100,30.08,0.5,West,6.9,-,N/A,Fog,Fog,270,2012-11-06 01:35:00
7:55 PM,39.2,39.2,100,30.07,0.5,WSW,5.8,-,N/A,Fog,Fog,240,2012-11-06 01:55:00
8:15 PM,39.2,39.2,100,30.07,2.0,SW,5.8,-,N/A,,Overcast,230,2012-11-06 02:15:00
8:35 PM,39.2,39.2,100,30.07,1.8,SW,5.8,-,N/A,,Overcast,220,2012-11-06 02:35:00
8:55 PM,39.2,39.2,100,30.06,1.8,SSW,5.8,-,N/A,,Overcast,210,2012-11-06 02:55:00
9:15 PM,39.2,39.2,100,30.05,1.8,SSW,8.1,-,N/A,,Overcast,210,2012-11-06 03:15:00
9:35 PM,39.2,39.2,100,30.06,1.8,SW,8.1,-,N/A,,Overcast,220,2012-11-06 03:35:00
9:55 PM,39.2,39.2,100,30.05,1.8,SSW,8.1,-,N/A,,Overcast,210,2012-11-06 03:55:00
10:15 PM,39.2,39.2,100,30.03,1.5,SSW,8.1,-,N/A,,Overcast,210,2012-11-06 04:15:00
10:35 PM,39.2,39.2,100,30.02,2.0,SSW,9.2,-,N/A,,Overcast,200,2012-11-06 04:35:00
10:55 PM,39.2,39.2,100,30.01,3.0,SSW,9.2,-,N/A,,Overcast,210,2012-11-06 04:55:00
11:15 PM,39.2,39.2,100,30.00,3.0,SSW,10.4,-,N/A,,Overcast,210,2012-11-06 05:15:00
11:35 PM,39.2,39.2,100,29.98,3.0,SSW,13.8,-,N/A,,Overcast,210,2012-11-06 05:35:00
11:55 PM,39.2,39.2,100,29.98,3.0,SW,15.0,20.7,N/A,,Overcast,220,2012-11-06 05:55:00